[[{"header":{"parameterUnit":"m.s-1","parameterCategory":1,"la1":30.2991,"la2":30.254,"lo1":-89.0895,"lo2":-89.0444,"dy":0.0017,"dx":0.0017,"nx":28,"ny":28,"refTime":"2023-03-17T21:00:00:Z","depth":0,"parameterNumber":2,"parameterNumberName":"U-component_of_WINDS"},"data":[0,0,0,0,0,0,0,0,0,0,0,0,0,0,0,0,0,0,0,0,0,0,0,0,0,0,0,0,0,0,0,0,0,0,0,0,0,0,0,0,0,0,0,0,0,0,0,0,0,0,0,0,0,0,0,0,0,0,0.3308,0.3308,0,0.3351,0.3352,0.3352,0.3355,0.3355,0.3354,0.3354,0.3405,0.3407,0.3408,0,0,0,0,0,0,0,0,0,0,0,0,0,0.3235,0.3236,0.3308,0.3308,0.3309,0.3351,0.3352,0.3352,0.3356,0.3355,0.3354,0.3354,0.3404,0.3406,0.3409,0,0,0,0,0,0,0,0,0,0,0,0,0,0.3271,0.3236,0.3307,0.3315,0.3316,0.3351,0.3352,0.3352,0.3356,0.3355,0.3354,0.3354,0.3404,0.3406,0.3409,0.344,0,0,0.3417,0.3418,0,0,0,0,0,0,0,0,0.3269,0.3274,0.3314,0.3315,0.3316,0.3347,0.3345,0.3382,0.3356,0.3341,0.3354,0.3353,0.3387,0.3391,0.3401,0.3443,0.3445,0.3417,0.3419,0.342,0.3421,0,0,0,0,0,0,0,0.3267,0.3272,0.3325,0.3314,0.3316,0.3319,0.3323,0.3352,0.3368,0.3342,0.3343,0.3347,0.3387,0.3398,0.3402,0.3446,0.3417,0.342,0.3421,0.3422,0.3519,0.352,0,0,0,0,0,0,0.3262,0.327,0.3324,0.3326,0.329,0.3321,0.3326,0.3338,0.3367,0.3371,0.3348,0.3347,0.3394,0.3399,0.3404,0.3444,0.342,0.3423,0.3424,0.3518,0.3519,0.352,0,0,0,0,0,0,0.326,0.3266,0.3322,0.3298,0.3305,0.3323,0.3337,0.3339,0.335,0.3371,0.3375,0.3355,0.3393,0.34,0.3431,0.3446,0.3424,0.3426,0.3517,0.3518,0.352,0.3524,0,0,0,0,0,0,0.3258,0.3266,0.3276,0.3298,0.3307,0.3347,0.3337,0.3341,0.3354,0.3353,0.338,0.3383,0.3393,0.3427,0.3434,0.3449,0.3429,0.3516,0.3518,0.3519,0.3523,0.3526,0.3528,0,0,0,0,0,0.3255,0.3276,0.3277,0.3283,0.332,0.3347,0.3352,0.3362,0.3355,0.3367,0.3381,0.3382,0.3443,0.343,0.3438,0.3454,0.3515,0.3517,0.3519,0.3522,0.3525,0.3528,0,0,0,0,0,0,0.3257,0.3279,0.328,0.3308,0.3326,0.3348,0.3363,0.3364,0.3386,0.3385,0.3397,0.3403,0.3435,0.3448,0.3433,0.3488,0.3479,0.3482,0.3478,0.3481,0.3484,0.3481,0.3431,0,0,0,0,0,0.3261,0.3279,0.3298,0.3322,0.333,0.3345,0.3357,0.3363,0.3383,0.339,0.3407,0.3428,0.3452,0.3467,0.349,0.3525,0.3532,0.354,0.3543,0.3545,0.3548,0.357,0.3574,0.3527,0.3527,0.3527,0,0,0.3268,0.3283,0.3294,0.3323,0.3337,0.3358,0.3351,0.3374,0.339,0.3395,0.3425,0.3438,0.3463,0.3496,0.3512,0.3508,0.3563,0.3547,0.3549,0.3551,0.3573,0.3577,0.3581,0.3529,0.3528,0.3528,0,0,0.3294,0.3305,0.3327,0.3341,0.3362,0.3372,0.3377,0.3399,0.3408,0.3438,0.3443,0.3464,0.3504,0.3522,0.3536,0.357,0.3573,0.3578,0.3591,0.3612,0.3616,0.3619,0.3634,0.3638,0.3581,0.3581,0.3581,0,0.3301,0.3331,0.3338,0.3361,0.3374,0.3378,0.3401,0.3415,0.3444,0.3454,0.3449,0.3501,0.3517,0.3556,0.3565,0.3576,0.3584,0.3575,0.3614,0.3618,0.3621,0.3635,0.364,0.3581,0.3581,0.3581,0.3581,0,0.3341,0.3361,0.3377,0.3402,0.3418,0.3441,0.3454,0.3469,0.3474,0.3485,0.3518,0.3538,0.3566,0.3576,0.3581,0.3617,0.3614,0.3611,0.3603,0.3626,0.3639,0.3644,0.3582,0.3582,0.3582,0.3582,0,0,0.3368,0.3397,0.3403,0.3415,0.344,0.3457,0.3482,0.3507,0.3521,0.3541,0.3564,0.3599,0.3597,0.3613,0.3621,0.364,0.3668,0.3635,0.3636,0.3642,0.3711,0.3713,0.3719,0.367,0.3671,0.3672,0.3709,0,0.3397,0.3437,0.3446,0.3482,0.3503,0.3507,0.3529,0.3548,0.356,0.3581,0.3596,0.3621,0.3615,0.3626,0.3644,0.366,0.3682,0.3658,0.3694,0.3695,0.3688,0.3726,0.3728,0.3762,0.3714,0.3715,0.3716,0,0.3436,0.3455,0.3493,0.3516,0.3525,0.3544,0.3569,0.3589,0.3612,0.3619,0.3638,0.3644,0.3673,0.3662,0.3704,0.3687,0.3703,0.3714,0.3715,0.372,0.3707,0.3733,0.3773,0.3779,0.3724,0.3723,0.3723,0,0.3454,0.3489,0.3517,0.3528,0.3555,0.3568,0.3581,0.3602,0.3618,0.3641,0.3652,0.3679,0.3694,0.3716,0.3731,0.3721,0.3772,0.3762,0.3782,0.3782,0.3793,0.3792,0.3838,0.3801,0.3801,0.3801,0.3801,0,0.3486,0.3509,0.3526,0.3543,0.3571,0.3581,0.3609,0.3622,0.3642,0.3664,0.367,0.3691,0.3708,0.3733,0.3745,0.3779,0.3786,0.3795,0.3798,0.3795,0.3794,0.3806,0.3805,0.3802,0.3802,0.3801,0.3801,0,0.351,0.3522,0.3553,0.3576,0.3582,0.3602,0.3623,0.3642,0.3654,0.3682,0.3689,0.3709,0.3739,0.3755,0.3793,0.3801,0.384,0.3841,0.3831,0.3833,0.3852,0.3851,0.3909,0.3918,0.3873,0.3873,0.3874,0,0.353,0.3549,0.3573,0.3587,0.3599,0.3622,0.3638,0.365,0.3667,0.3695,0.3711,0.374,0.3764,0.3812,0.3832,0.3861,0.3864,0.3883,0.3869,0.3866,0.3867,0.3866,0.3869,0.3885,0.3886,0.3886,0.3886,0,0.3566,0.3571,0.3592,0.3616,0.3634,0.3654,0.3674,0.3686,0.3702,0.3721,0.375,0.3768,0.3806,0.3837,0.3868,0.3884,0.3889,0.389,0.3897,0.3894,0.3889,0.3894,0.3839,0.3889,0.3889,0.3889,0.3889,0.3888,0.359,0.3607,0.3627,0.3651,0.3667,0.3686,0.3705,0.3719,0.3743,0.3773,0.378,0.3811,0.3836,0.3878,0.3896,0.3923,0.392,0.3928,0.3931,0.3933,0.3935,0.3883,0.3928,0.3928,0.3928,0.3928,0.3928,0,0.3627,0.364,0.3662,0.3689,0.3709,0.3709,0.3732,0.3749,0.3776,0.3798,0.3821,0.3856,0.3886,0.3908,0.394,0.3957,0.3961,0.3965,0.3965,0.3969,0.3935,0.3927,0.3962,0.3962,0.3962,0.3962,0.3962,0.3962,0.3649,0.3678,0.3686,0.3724,0.3738,0.3767,0.378,0.3799,0.3816,0.3854,0.3878,0.3892,0.3915,0.3948,0.3977,0.3983,0.3995,0.4,0.4007,0.3975,0.3971,0.3968,0.396,0.4002,0.4002,0.4039,0.4039,0.404]},{"header":{"parameterUnit":"m.s-1","parameterCategory":1,"la1":30.2991,"la2":30.254,"lo1":-89.0895,"lo2":-89.0444,"dy":0.0017,"dx":0.0017,"nx":28,"ny":28,"refTime":"2023-03-17T21:00:00:Z","depth":0,"parameterNumber":3,"parameterNumberName":"V-component_of_WINDS"},"data":[0,0,0,0,0,0,0,0,0,0,0,0,0,0,0,0,0,0,0,0,0,0,0,0,0,0,0,0,0,0,0,0,0,0,0,0,0,0,0,0,0,0,0,0,0,0,0,0,0,0,0,0,0,0,0,0,0,0,-6.1561,-6.1561,0,-6.1531,-6.153,-6.153,-6.1443,-6.1441,-6.1439,-6.1437,-6.1405,-6.1406,-6.1407,0,0,0,0,0,0,0,0,0,0,0,0,0,-6.1541,-6.1542,-6.1561,-6.1561,-6.156,-6.1531,-6.153,-6.153,-6.1443,-6.1441,-6.1438,-6.1436,-6.1405,-6.1406,-6.1407,0,0,0,0,0,0,0,0,0,0,0,0,0,-6.1534,-6.1542,-6.1561,-6.1513,-6.1509,-6.1531,-6.153,-6.153,-6.1444,-6.1441,-6.1438,-6.1435,-6.1405,-6.1406,-6.1407,-6.1472,0,0,-6.1411,-6.1412,0,0,0,0,0,0,0,0,-6.1535,-6.1535,-6.1521,-6.1517,-6.1512,-6.1487,-6.1511,-6.151,-6.1444,-6.1468,-6.1437,-6.1434,-6.1435,-6.1433,-6.1434,-6.1471,-6.147,-6.1411,-6.1412,-6.1413,-6.1413,0,0,0,0,0,0,0,-6.1535,-6.1536,-6.1549,-6.1521,-6.1515,-6.1493,-6.1489,-6.1511,-6.1468,-6.1466,-6.146,-6.1457,-6.1432,-6.1433,-6.1433,-6.1469,-6.1411,-6.1413,-6.1414,-6.1414,-6.1554,-6.1557,0,0,0,0,0,0,-6.1543,-6.1537,-6.155,-6.1548,-6.1516,-6.1495,-6.1491,-6.1498,-6.1467,-6.146,-6.146,-6.1453,-6.1432,-6.1431,-6.1431,-6.1502,-6.1413,-6.1414,-6.1415,-6.1551,-6.1555,-6.1558,0,0,0,0,0,0,-6.1543,-6.1545,-6.1551,-6.1541,-6.154,-6.1499,-6.1508,-6.1499,-6.15,-6.1463,-6.1454,-6.1469,-6.143,-6.1429,-6.1462,-6.15,-6.1415,-6.1416,-6.1548,-6.1552,-6.1556,-6.1647,0,0,0,0,0,0,-6.1543,-6.1546,-6.1571,-6.1542,-6.1541,-6.1583,-6.151,-6.15,-6.1503,-6.1494,-6.1469,-6.1462,-6.1427,-6.146,-6.1463,-6.15,-6.1417,-6.1544,-6.155,-6.1555,-6.1641,-6.1654,-6.1666,0,0,0,0,0,-6.1542,-6.1598,-6.1572,-6.1574,-6.1571,-6.1586,-6.1585,-6.1544,-6.1506,-6.153,-6.1506,-6.1463,-6.1496,-6.1465,-6.1467,-6.1505,-6.1541,-6.1548,-6.1554,-6.1635,-6.1652,-6.1666,0,0,0,0,0,0,-6.1633,-6.1594,-6.1565,-6.1613,-6.1603,-6.1571,-6.16,-6.1564,-6.1564,-6.1556,-6.1505,-6.15,-6.1539,-6.1526,-6.1491,-6.1565,-6.1511,-6.1519,-6.1572,-6.1587,-6.16,-6.1601,-6.1418,0,0,0,0,0,-6.1659,-6.1674,-6.1639,-6.1685,-6.1682,-6.1642,-6.1647,-6.1616,-6.1604,-6.16,-6.1578,-6.1567,-6.1574,-6.1581,-6.1586,-6.1639,-6.163,-6.1666,-6.1679,-6.1689,-6.1696,-6.1719,-6.1733,-6.1579,-6.1579,-6.1579,0,0,-6.1712,-6.1692,-6.1705,-6.1703,-6.1691,-6.1707,-6.1639,-6.166,-6.1671,-6.1603,-6.1631,-6.1615,-6.1599,-6.1642,-6.1659,-6.1632,-6.1736,-6.1698,-6.1706,-6.1707,-6.1727,-6.1742,-6.1755,-6.1583,-6.1583,-6.1582,0,0,-6.1815,-6.1804,-6.1839,-6.1829,-6.1813,-6.1786,-6.1794,-6.1767,-6.1753,-6.1782,-6.173,-6.1742,-6.1757,-6.1747,-6.1744,-6.1842,-6.1801,-6.1845,-6.191,-6.1934,-6.1946,-6.1956,-6.1988,-6.2,-6.1852,-6.1852,-6.1853,0,-6.1883,-6.1905,-6.1862,-6.1885,-6.1884,-6.1823,-6.1857,-6.1849,-6.1836,-6.1836,-6.1806,-6.1821,-6.1807,-6.1844,-6.1868,-6.1869,-6.1874,-6.1847,-6.1948,-6.1958,-6.1967,-6.1996,-6.2009,-6.1858,-6.1857,-6.1856,-6.1856,0,-6.1988,-6.2004,-6.2034,-6.2022,-6.2025,-6.2054,-6.2013,-6.2021,-6.199,-6.1965,-6.1993,-6.1974,-6.1972,-6.1979,-6.195,-6.2012,-6.1994,-6.1957,-6.1902,-6.1987,-6.2014,-6.2025,-6.1865,-6.1863,-6.1862,-6.186,0,0,-6.2147,-6.2109,-6.2121,-6.2112,-6.209,-6.2101,-6.2126,-6.2124,-6.213,-6.2123,-6.2141,-6.2154,-6.2118,-6.2115,-6.2083,-6.2105,-6.2179,-6.2063,-6.2062,-6.2083,-6.2242,-6.2268,-6.2282,-6.2153,-6.2155,-6.2157,-6.2242,0,-6.2243,-6.2283,-6.2243,-6.2291,-6.2304,-6.2245,-6.2267,-6.2254,-6.2232,-6.2239,-6.2214,-6.2223,-6.2177,-6.2174,-6.2192,-6.2166,-6.221,-6.216,-6.2166,-6.2167,-6.2169,-6.2297,-6.2325,-6.2407,-6.2253,-6.2255,-6.2256,0,-6.2359,-6.2356,-6.2405,-6.2376,-6.238,-6.24,-6.2393,-6.2401,-6.2385,-6.2367,-6.2363,-6.2324,-6.2345,-6.2293,-6.2319,-6.2286,-6.2286,-6.2274,-6.2276,-6.2272,-6.2215,-6.2294,-6.2432,-6.2444,-6.2273,-6.2271,-6.227,0,-6.2466,-6.2475,-6.2504,-6.2499,-6.2467,-6.2482,-6.2469,-6.245,-6.2451,-6.2445,-6.2445,-6.2442,-6.244,-6.2438,-6.2399,-6.2366,-6.2429,-6.2375,-6.2412,-6.2413,-6.2426,-6.2425,-6.2564,-6.2432,-6.2432,-6.2432,-6.2432,0,-6.2575,-6.2607,-6.2551,-6.2569,-6.2601,-6.2555,-6.2588,-6.2569,-6.2553,-6.2564,-6.2515,-6.2527,-6.2476,-6.2482,-6.2452,-6.2476,-6.2476,-6.2461,-6.2452,-6.2463,-6.2465,-6.2461,-6.2453,-6.2435,-6.2434,-6.2434,-6.2433,0,-6.2699,-6.2664,-6.2691,-6.2658,-6.265,-6.2676,-6.2646,-6.2661,-6.2635,-6.265,-6.2651,-6.2611,-6.2615,-6.2577,-6.2574,-6.2554,-6.259,-6.2573,-6.2596,-6.2589,-6.2628,-6.2623,-6.2765,-6.278,-6.2643,-6.2644,-6.2646,0,-6.277,-6.2792,-6.2761,-6.2765,-6.2755,-6.2763,-6.2762,-6.2718,-6.2719,-6.2701,-6.2717,-6.2717,-6.2714,-6.2724,-6.2693,-6.269,-6.267,-6.2721,-6.267,-6.2679,-6.2667,-6.2665,-6.2665,-6.273,-6.2732,-6.2734,-6.2735,0,-6.2897,-6.2878,-6.288,-6.2875,-6.2876,-6.287,-6.2861,-6.2867,-6.2818,-6.2822,-6.2826,-6.2824,-6.282,-6.282,-6.281,-6.2796,-6.2756,-6.2751,-6.2759,-6.277,-6.278,-6.2771,-6.2621,-6.2748,-6.2746,-6.2745,-6.2745,-6.2744,-6.2994,-6.301,-6.2989,-6.2992,-6.2981,-6.2973,-6.2983,-6.2958,-6.2961,-6.2954,-6.2928,-6.2935,-6.2915,-6.2899,-6.2888,-6.2892,-6.2867,-6.288,-6.2882,-6.2885,-6.289,-6.2782,-6.289,-6.289,-6.2889,-6.2889,-6.2889,0,-6.3115,-6.3099,-6.3103,-6.309,-6.3092,-6.3056,-6.3043,-6.3046,-6.3054,-6.3039,-6.3037,-6.304,-6.3039,-6.3008,-6.3003,-6.3012,-6.2993,-6.3011,-6.3009,-6.3005,-6.2914,-6.2906,-6.3026,-6.3026,-6.3026,-6.3026,-6.3026,-6.3026,-6.3179,-6.3202,-6.318,-6.3197,-6.318,-6.3187,-6.3182,-6.3174,-6.3161,-6.3166,-6.3165,-6.3145,-6.3123,-6.3116,-6.3112,-6.3103,-6.3102,-6.3126,-6.311,-6.3026,-6.3012,-6.2999,-6.2991,-6.3127,-6.3127,-6.32,-6.3201,-6.3201]}]]